Theta_e
340 340 340 340 343 348 348 346 346 347 346 345 347 346 346 346 349 348 349 350 349 347 350 348 345 346 348 345 345 344 343 341 337 343 344 346 344 346 346 347 348 350 351
340 341 340 341 341 342 346 348 348 345 346 345 346 348 348 347 349 348 348 350 348 348 349 348 345 348 348 347 347 346 346 346 344 341 344 346 344 345 346 345 346 346 352
339 340 341 341 341 341 342 348 347 346 346 347 347 347 348 349 347 348 348 349 350 350 348 348 349 347 347 348 348 347 346 347 346 342 344 345 347 347 346 348 350 352 352
338 337 337 340 344 347 349 349 347 347 346 346 347 348 349 347 347 347 347 348 349 350 349 349 348 348 349 349 347 345 344 345 345 344 344 344 346 347 347 345 347 348 349
339 339 338 340 342 345 348 348 349 348 348 348 347 346 347 345 345 344 345 346 347 349 349 349 349 349 346 347 351 349 347 346 344 343 342 341 343 344 343 345 343 346 348
339 339 343 345 347 345 345 348 346 347 347 348 347 348 345 345 338 337 343 344 348 349 349 349 351 347 347 341 341 341 347 347 345 342 342 341 343 343 343 343 341 340 338
342 343 343 345 345 344 345 344 343 345 345 344 346 345 344 344 335 335 339 343 345 348 347 350 350 351 348 351 340 337 338 338 341 347 344 342 340 341 338 335 334 335 332
339 339 340 342 341 343 340 338 340 340 341 343 340 341 343 344 333 332 337 345 347 348 346 349 350 352 352 350 348 344 340 337 335 334 337 335 335 335 332 331 330 329 331
334 334 335 339 340 342 339 337 339 339 332 331 332 332 331 333 330 328 333 344 346 347 345 348 348 349 339 334 345 340 335 330 327 327 326 325 325 326 328 329 328 327 327
332 334 334 336 337 340 342 340 337 334 332 333 331 333 329 332 327 324 330 343 342 342 341 345 332 344 326 327 343 336 331 330 328 329 330 328 328 330 328 331 331 326 325
331 331 332 333 334 337 340 343 336 333 332 332 331 329 329 330 330 322 321 338 340 342 341 340 338 325 319 318 323 330 329 328 326 328 328 329 329 331 332 334 335 330 325
328 328 329 331 332 334 336 335 340 335 330 329 327 326 329 329 323 322 319 326 333 340 341 341 332 317 314 314 321 320 319 323 327 327 326 326 328 330 332 334 335 336 334
327 327 328 329 329 330 331 331 335 334 329 326 326 325 326 328 330 319 318 316 321 340 346 334 319 312 311 314 317 318 319 327 326 325 325 327 330 331 333 333 335 338 338
325 326 326 326 325 327 330 330 330 334 332 327 325 325 326 325 327 327 327 325 323 328 327 326 320 319 320 323 323 323 326 327 326 326 327 331 332 331 330 331 332 333 331
324 323 323 324 323 324 326 327 327 331 331 331 329 326 325 324 325 315 321 328 328 326 324 323 322 324 325 326 325 325 325 325 325 326 327 328 327 328 329 330 329 329 328
320 321 320 321 322 323 323 325 316 313 309 308 308 316 325 311 305 305 303 306 309 311 325 324 323 325 326 326 324 323 325 324 325 327 326 326 327 327 326 326 327 328 326
320 320 321 319 322 323 324 324 325 325 307 304 303 302 301 310 304 303 301 303 305 311 327 325 325 325 325 324 324 324 324 326 326 327 326 326 326 325 324 322 323 324 324
320 314 320 321 322 324 324 325 326 326 324 325 313 307 301 300 301 299 299 304 313 316 325 325 325 326 326 324 323 323 323 324 326 326 326 326 327 326 325 323 321 321 320
320 321 321 322 322 322 324 324 324 324 324 325 327 311 303 298 299 298 302 328 323 319 322 323 326 326 325 324 324 324 324 324 325 325 326 326 326 326 325 325 324 309 314
321 319 319 322 323 322 322 322 323 323 324 325 326 327 315 307 312 311 313 324 327 325 323 323 323 327 328 327 325 323 321 322 324 325 326 326 326 326 325 325 325 324 323
321 322 322 322 322 322 322 322 323 323 323 324 325 326 310 319 321 320 316 319 326 327 326 326 324 323 326 328 326 322 323 324 325 326 326 326 326 326 326 326 326 325 324
322 322 322 322 323 323 323 323 323 323 322 323 325 327 302 318 323 323 322 320 322 328 330 329 327 325 326 327 328 326 324 325 326 327 327 327 327 326 327 326 325 324 324
322 322 322 322 323 321 322 323 322 323 323 324 326 327 311 316 321 323 323 323 323 324 327 329 328 326 325 325 326 328 326 325 326 327 327 326 325 325 325 326 325 324 323
316 317 320 323 323 323 323 323 324 315 322 326 327 329 324 320 322 324 324 324 324 325 324 325 327 327 328 326 328 329 330 328 327 327 327 326 324 319 325 325 325 324 323
314 315 314 319 321 322 322 323 324 325 326 328 328 330 328 324 324 325 325 324 323 322 322 323 323 326 326 326 325 326 314 296 322 314 327 328 326 325 325 325 325 323 322
313 316 316 317 318 321 322 324 324 324 325 327 328 329 327 324 323 324 323 322 321 321 322 323 324 325 326 324 323 304 290 292 307 302 324 326 325 325 326 325 322 317 315
Wind_Speed
6 6 6 6 6 5 5 6 7 5 6 6 6 6 7 8 6 6 7 6 6 5 6 5 5 3 2 3 3 3 4 4 4 3 2 1 3 5 5 6 6 6 5
3 4 8 7 4 4 7 8 7 9 6 7 7 6 6 6 7 8 8 7 8 7 8 6 6 5 5 5 5 6 5 6 4 5 2 2 4 2 2 4 4 5 6
5 4 5 2 5 8 12 13 9 9 8 6 6 7 8 8 7 8 9 9 7 7 6 6 6 6 4 4 6 6 4 4 5 4 3 1 2 1 2 2 3 3 4
4 5 5 5 5 8 11 12 10 8 7 7 8 7 7 6 7 7 7 8 7 7 7 8 6 7 6 5 6 5 4 4 4 4 4 3 2 1 2 2 4 1 4
6 5 3 4 6 8 11 10 7 7 9 8 7 8 8 7 7 8 8 9 8 8 7 6 7 8 8 7 4 5 5 4 3 4 3 2 3 2 3 1 3 5 4
5 4 2 3 4 5 6 6 5 3 6 6 8 8 8 7 11 13 9 7 8 9 7 7 7 8 8 9 10 6 7 5 4 3 2 3 4 3 1 2 3 3 5
9 7 5 4 5 9 7 5 4 4 4 4 7 5 4 7 12 15 16 9 11 10 8 7 6 6 7 6 6 5 4 4 4 3 4 4 3 2 1 3 3 4 6
6 5 5 5 7 7 5 4 4 5 7 9 10 9 6 7 13 16 17 14 12 10 9 8 8 7 7 8 7 6 5 4 3 3 4 3 4 4 3 2 3 4 6
5 4 4 5 4 4 2 2 3 9 13 9 6 6 7 7 13 13 9 8 8 8 6 6 8 8 9 11 9 8 7 5 3 3 1 4 5 6 5 2 4 3 5
2 2 4 4 4 4 2 2 4 7 8 7 7 2 3 8 9 12 9 5 5 5 5 5 10 9 11 13 9 8 6 4 4 2 1 2 3 4 4 5 3 4 3
2 1 1 3 4 4 3 2 5 6 4 2 4 5 5 15 10 12 12 6 4 4 5 6 5 10 13 14 10 7 5 5 3 2 2 2 3 3 3 3 5 4 4
3 3 2 2 3 2 4 3 6 6 3 5 4 7 9 12 12 14 14 15 13 9 12 8 6 13 13 12 9 8 10 6 3 2 2 2 2 3 3 5 6 6 6
4 4 3 3 4 5 4 3 3 5 4 5 6 8 12 10 7 13 15 9 11 11 9 9 13 13 11 7 6 10 9 4 4 3 3 2 2 2 4 4 4 3 4
5 5 4 4 5 5 5 3 4 6 8 7 8 11 11 2 3 2 2 4 13 9 5 6 10 10 7 5 7 6 4 4 4 3 2 2 2 1 1 2 2 4 1
4 5 5 4 6 6 7 8 7 8 8 8 11 8 5 4 2 5 5 5 3 4 7 7 7 6 6 6 4 6 4 4 4 3 1 1 1 2 1 2 2 2 2
6 5 5 5 5 5 6 8 12 17 10 14 12 7 3 4 3 5 5 9 12 15 6 7 8 8 8 7 7 6 5 6 4 4 3 0 1 1 2 3 2 2 2
8 10 7 6 6 6 5 7 8 10 13 10 12 12 13 8 10 11 12 10 9 8 5 8 8 8 7 7 7 6 5 5 5 4 3 3 2 2 2 4 3 2 2
10 12 8 8 7 7 7 7 7 8 11 6 9 11 12 13 11 10 11 9 4 4 3 7 8 8 8 7 6 6 5 6 5 5 5 5 3 2 2 3 4 3 3
9 9 8 7 7 8 7 7 7 8 8 8 5 4 5 6 8 13 17 6 8 7 6 7 7 8 7 7 7 6 7 7 6 6 5 5 4 3 2 1 2 2 0
10 15 13 8 7 8 7 8 8 8 8 7 6 7 4 5 5 7 8 6 7 7 8 8 6 7 8 7 7 7 5 6 6 6 5 5 4 4 4 4 3 3 3
8 9 11 8 8 8 8 8 8 7 7 7 8 8 12 8 8 8 9 9 8 8 9 9 7 7 7 8 8 6 8 8 8 8 6 6 5 5 5 5 5 4 4
8 9 9 9 8 8 8 8 8 8 8 8 8 8 13 8 7 8 9 9 9 9 8 7 8 9 9 10 9 9 9 9 8 7 7 6 5 5 5 5 5 4 5
8 9 10 8 8 10 9 9 9 8 9 9 8 6 6 7 8 8 9 8 8 9 9 9 8 8 8 8 9 9 10 10 9 7 7 6 6 5 5 5 4 3 3
9 10 11 9 8 8 9 9 8 10 8 8 9 7 7 7 8 9 8 7 7 7 7 9 9 12 11 8 7 9 9 7 7 9 10 8 7 6 4 3 3 4 4
9 9 10 10 9 8 9 9 9 9 8 7 8 7 6 7 7 8 8 7 8 8 9 8 7 11 13 14 12 13 11 13 9 10 8 8 7 7 5 4 5 5 5
9 10 8 9 9 9 9 8 8 7 8 8 8 6 6 6 7 7 7 7 7 7 7 7 8 11 11 10 11 11 11 11 9 9 8 7 7 6 6 6 8 5 6
Wind_Direction
208 166 187 224 235 231 235 241 228 227 213 198 207 208 214 212 212 192 216 222 222 227 236 228 220 216 231 208 203 205 201 187 231 280 251 245 248 211 210 228 230 229 245
259 215 198 189 230 282 287 270 241 219 213 207 198 199 209 220 217 196 214 221 227 231 238 229 215 215 203 205 204 212 206 200 212 252 261 260 243 273 246 259 249 249 252
201 230 280 313 313 295 274 262 231 216 208 206 211 206 215 215 204 207 207 214 223 230 222 227 226 206 225 199 205 212 212 208 212 228 272 279 282 297 304 265 265 264 246
258 241 238 248 249 265 282 245 216 206 207 201 208 216 218 212 210 214 201 219 221 231 213 221 214 210 213 201 211 210 204 215 212 232 258 264 258 277 247 282 301 295 305
191 219 250 259 257 268 269 246 226 206 214 208 203 206 205 198 208 208 210 222 222 230 220 217 226 220 214 202 198 195 199 208 215 234 249 252 271 282 291 353 298 310 295
1 60 19 289 270 270 247 253 245 220 245 215 218 220 210 214 210 194 188 218 234 224 216 218 219 222 227 221 220 207 187 187 205 204 224 243 255 256 240 295 304 319 313
59 48 43 1 23 29 351 10 17 348 310 260 271 225 238 266 237 214 198 207 224 221 210 211 216 223 210 208 205 183 187 201 218 198 229 227 252 243 315 290 272 275 267
58 47 26 19 27 53 82 95 68 38 360 20 28 0 329 267 272 237 218 213 216 217 207 203 203 201 199 183 180 180 191 205 203 216 240 257 250 266 248 264 279 286 272
58 42 22 28 44 68 53 78 93 84 95 104 87 32 353 343 316 279 258 237 221 216 222 205 214 207 190 179 179 191 202 218 207 174 215 270 257 241 245 219 245 267 292
85 37 347 12 34 41 59 78 118 145 143 142 133 244 226 271 258 288 226 200 225 236 216 214 219 201 181 179 187 185 205 223 200 225 241 263 277 283 265 218 243 243 262
199 196 347 354 350 335 331 229 212 208 183 89 199 234 231 246 231 231 227 196 156 251 224 207 201 220 192 180 172 174 192 147 180 223 268 283 292 273 272 252 243 220 210
205 225 212 265 295 290 301 303 253 264 209 241 220 236 239 240 228 210 229 201 165 206 227 204 185 187 179 167 159 155 143 135 153 191 253 274 272 298 300 301 291 263 232
312 291 278 244 263 276 265 253 267 230 226 242 229 243 255 307 311 195 198 229 255 210 220 183 155 166 157 149 151 146 145 166 173 178 198 239 236 293 302 313 311 307 285
268 267 257 248 254 252 267 241 230 239 231 226 231 238 246 294 336 126 217 256 222 212 191 162 147 156 181 168 137 155 170 174 170 179 202 243 306 331 325 354 341 358 35
245 258 257 240 238 243 238 250 226 229 224 226 242 236 257 241 245 267 212 185 219 204 124 124 141 164 173 171 166 156 171 178 182 181 165 268 27 293 9 25 32 10 63
278 274 250 243 250 237 237 261 248 242 229 237 245 240 239 153 209 153 169 199 178 177 152 166 175 178 180 177 182 173 178 188 182 166 145 54 312 340 43 65 43 57 31
279 284 274 248 248 248 236 234 256 276 232 254 250 234 220 239 196 192 167 162 182 187 175 169 184 182 191 174 172 174 174 189 162 158 152 164 174 95 67 64 53 25 37
276 262 265 264 250 247 242 233 232 255 276 263 235 224 221 210 190 179 151 123 141 209 178 190 175 187 181 182 180 172 163 163 169 171 171 166 168 138 113 90 90 78 50
269 270 263 258 251 243 247 243 243 246 253 268 262 176 206 208 193 178 177 184 179 189 196 194 192 178 178 180 184 172 168 174 174 174 183 171 167 154 158 178 126 112 113
267 259 251 259 254 250 251 248 246 246 254 239 236 252 152 148 190 196 210 208 186 187 185 201 188 178 177 180 174 171 159 176 174 188 186 181 175 180 199 206 199 205 208
271 270 258 255 249 246 247 248 247 246 248 246 248 234 189 198 215 206 197 206 198 195 194 196 184 181 175 176 172 172 181 189 189 197 193 193 185 197 209 222 223 218 225
272 273 271 258 254 250 246 247 246 246 248 247 254 244 184 204 215 209 203 197 201 208 207 195 188 188 179 175 177 184 187 194 198 202 202 195 196 196 196 207 211 218 210
307 290 277 264 252 248 250 248 250 249 250 252 247 229 192 214 223 210 205 198 193 203 206 205 191 186 184 184 178 186 184 193 194 187 194 192 186 181 187 204 203 193 200
296 291 288 271 256 245 245 248 244 244 242 246 257 247 215 211 219 217 209 191 186 197 193 198 197 192 187 181 177 190 196 192 172 187 189 186 179 165 186 204 198 181 156
283 281 279 272 266 257 249 243 246 248 245 236 246 241 215 202 212 210 209 186 182 189 193 193 184 184 180 181 186 189 181 160 176 168 174 173 170 176 192 191 169 150 146
283 278 268 272 268 261 254 252 252 248 250 251 243 230 208 191 198 201 190 191 183 184 182 188 186 181 175 176 176 146 136 142 139 141 147 153 158 166 163 155 149 140 128